TimeEDT,TemperatureF,Dew PointF,Humidity,Sea Level PressureIn,VisibilityMPH,Wind Direction,Wind SpeedMPH,Gust SpeedMPH,PrecipitationIn,Events,Conditions,WindDirDegrees,DateUTC
12:08 AM,44.6,26.6,49,30.29,10.0,WNW,6.9,18.4,N/A,,Overcast,300,2013-05-25 04:08:00
12:28 AM,44.6,26.6,49,30.28,10.0,NW,8.1,-,N/A,,Overcast,310,2013-05-25 04:28:00
12:48 AM,44.6,26.6,49,30.29,10.0,NW,10.4,17.3,N/A,,Overcast,310,2013-05-25 04:48:00
1:08 AM,44.6,28.4,53,30.28,10.0,NNW,6.9,-,N/A,,Overcast,330,2013-05-25 05:08:00
1:28 AM,44.6,28.4,53,30.28,10.0,West,5.8,-,N/A,,Overcast,280,2013-05-25 05:28:00
1:48 AM,44.6,28.4,53,30.27,10.0,NW,5.8,-,N/A,,Mostly Cloudy,310,2013-05-25 05:48:00
2:08 AM,42.8,28.4,57,30.27,10.0,West,11.5,17.3,N/A,,Scattered Clouds,270,2013-05-25 06:08:00
2:28 AM,42.8,28.4,57,30.27,10.0,West,8.1,-,N/A,,Mostly Cloudy,270,2013-05-25 06:28:00
2:48 AM,42.8,28.4,57,30.27,10.0,WNW,4.6,-,N/A,,Overcast,300,2013-05-25 06:48:00
3:08 AM,42.8,28.4,57,30.28,10.0,WNW,8.1,-,N/A,,Overcast,290,2013-05-25 07:08:00
3:28 AM,42.8,28.4,57,30.28,10.0,WNW,3.5,-,N/A,,Overcast,300,2013-05-25 07:28:00
3:48 AM,42.8,28.4,57,30.28,10.0,West,8.1,-,N/A,,Overcast,270,2013-05-25 07:48:00
4:08 AM,42.8,30.2,61,30.29,10.0,Calm,Calm,-,N/A,,Overcast,0,2013-05-25 08:08:00
4:28 AM,42.8,28.4,57,30.28,10.0,West,4.6,-,N/A,,Overcast,280,2013-05-25 08:28:00
4:48 AM,42.8,28.4,57,30.27,10.0,NW,4.6,-,N/A,,Overcast,310,2013-05-25 08:48:00
5:08 AM,42.8,30.2,61,30.28,10.0,NNW,4.6,-,N/A,,Overcast,340,2013-05-25 09:08:00
5:28 AM,41.0,30.2,65,30.28,10.0,NW,4.6,-,N/A,,Overcast,320,2013-05-25 09:28:00
5:48 AM,41.0,30.2,65,30.28,10.0,North,4.6,-,N/A,,Overcast,10,2013-05-25 09:48:00
6:08 AM,41.0,30.2,65,30.29,10.0,NW,5.8,-,N/A,,Overcast,310,2013-05-25 10:08:00
6:28 AM,42.8,30.2,61,30.30,10.0,North,5.8,-,N/A,,Overcast,350,2013-05-25 10:28:00
6:49 AM,42.8,30.2,61,30.30,10.0,NNE,3.5,-,N/A,,Overcast,20,2013-05-25 10:49:00
7:09 AM,42.8,32.0,66,30.30,10.0,NNW,4.6,-,N/A,,Mostly Cloudy,330,2013-05-25 11:09:00
7:29 AM,42.8,32.0,66,30.30,10.0,NNW,5.8,-,N/A,,Overcast,330,2013-05-25 11:29:00
7:49 AM,42.8,32.0,66,30.30,10.0,NNW,5.8,17.3,N/A,,Overcast,340,2013-05-25 11:49:00
8:09 AM,42.8,32.0,66,30.30,10.0,NNW,8.1,-,N/A,,Overcast,340,2013-05-25 12:09:00
8:29 AM,44.6,32.0,61,30.30,10.0,NW,9.2,17.3,N/A,,Overcast,320,2013-05-25 12:29:00
8:49 AM,44.6,32.0,61,30.30,10.0,NNW,4.6,17.3,N/A,,Mostly Cloudy,330,2013-05-25 12:49:00
9:09 AM,44.6,32.0,61,30.30,10.0,NW,10.4,-,N/A,,Mostly Cloudy,310,2013-05-25 13:09:00
9:29 AM,44.6,32.0,61,30.28,10.0,WNW,8.1,16.1,N/A,,Scattered Clouds,290,2013-05-25 13:29:00
9:49 AM,46.4,32.0,57,30.28,10.0,WNW,11.5,17.3,N/A,,Scattered Clouds,290,2013-05-25 13:49:00
10:09 AM,48.2,32.0,54,30.28,10.0,NNW,6.9,10.4,N/A,,Clear,340,2013-05-25 14:09:00
10:29 AM,50.0,32.0,50,30.28,10.0,NNW,11.5,24.2,N/A,,Scattered Clouds,340,2013-05-25 14:29:00
10:49 AM,51.8,32.0,47,30.28,10.0,NNW,16.1,27.6,N/A,,Scattered Clouds,340,2013-05-25 14:49:00
11:09 AM,53.6,32.0,44,30.27,10.0,NW,8.1,19.6,N/A,,Scattered Clouds,320,2013-05-25 15:09:00
11:29 AM,53.6,32.0,44,30.27,10.0,NW,12.7,19.6,N/A,,Clear,310,2013-05-25 15:29:00
11:49 AM,53.6,30.2,41,30.27,10.0,NW,9.2,21.9,N/A,,Clear,320,2013-05-25 15:49:00
12:09 PM,55.4,30.2,38,30.26,10.0,WNW,10.4,20.7,N/A,,Clear,290,2013-05-25 16:09:00
12:29 PM,57.2,32.0,38,30.26,10.0,NW,9.2,16.1,N/A,,Clear,320,2013-05-25 16:29:00
12:49 PM,57.2,32.0,38,30.25,10.0,NNW,19.6,27.6,N/A,,Clear,340,2013-05-25 16:49:00
1:09 PM,57.2,32.0,38,30.24,10.0,NW,18.4,26.5,N/A,,Clear,310,2013-05-25 17:09:00
1:29 PM,59.0,32.0,36,30.24,10.0,NNW,13.8,27.6,N/A,,Clear,330,2013-05-25 17:29:00
1:49 PM,59.0,32.0,36,30.24,10.0,WNW,15.0,21.9,N/A,,Clear,300,2013-05-25 17:49:00
2:09 PM,59.0,32.0,36,30.23,10.0,NW,11.5,23.0,N/A,,Clear,320,2013-05-25 18:09:00
2:29 PM,59.0,30.2,34,30.23,10.0,NNW,12.7,27.6,N/A,,Clear,330,2013-05-25 18:29:00
2:49 PM,60.8,32.0,34,30.22,10.0,NW,15.0,26.5,N/A,,Clear,320,2013-05-25 18:49:00
3:09 PM,60.8,32.0,34,30.22,10.0,NNW,18.4,26.5,N/A,,Clear,330,2013-05-25 19:09:00
3:29 PM,60.8,32.0,34,30.22,10.0,NNW,16.1,25.3,N/A,,Scattered Clouds,330,2013-05-25 19:29:00
3:50 PM,62.6,32.0,32,30.21,10.0,WNW,13.8,24.2,N/A,,Scattered Clouds,300,2013-05-25 19:50:00
4:10 PM,60.8,30.2,31,30.21,10.0,NW,10.4,32.2,N/A,,Clear,310,2013-05-25 20:10:00
4:30 PM,62.6,30.2,30,30.20,10.0,NW,15.0,29.9,N/A,,Clear,320,2013-05-25 20:30:00
4:50 PM,62.6,30.2,30,30.20,10.0,WNW,12.7,27.6,N/A,,Clear,300,2013-05-25 20:50:00
5:10 PM,62.6,30.2,30,30.20,10.0,NW,15.0,29.9,N/A,,Clear,320,2013-05-25 21:10:00
5:30 PM,62.6,30.2,30,30.20,10.0,NW,10.4,24.2,N/A,,Clear,310,2013-05-25 21:30:00
5:50 PM,62.6,30.2,30,30.20,10.0,NW,15.0,28.8,N/A,,Clear,320,2013-05-25 21:50:00
6:10 PM,62.6,30.2,30,30.19,10.0,WNW,12.7,21.9,N/A,,Clear,300,2013-05-25 22:10:00
6:30 PM,62.6,28.4,27,30.19,10.0,NW,11.5,31.1,N/A,,Clear,320,2013-05-25 22:30:00
6:50 PM,62.6,28.4,27,30.19,10.0,NW,10.4,21.9,N/A,,Clear,310,2013-05-25 22:50:00
7:10 PM,60.8,28.4,29,30.19,10.0,NNW,11.5,25.3,N/A,,Clear,330,2013-05-25 23:10:00
7:30 PM,60.8,30.2,31,30.20,10.0,WNW,9.2,26.5,N/A,,Clear,300,2013-05-25 23:30:00
7:50 PM,60.8,30.2,31,30.20,10.0,WNW,10.4,-,N/A,,Clear,290,2013-05-25 23:50:00
8:10 PM,59.0,28.4,31,30.20,10.0,WNW,8.1,19.6,N/A,,Clear,290,2013-05-26 00:10:00
8:30 PM,59.0,28.4,31,30.21,10.0,NW,9.2,17.3,N/A,,Clear,310,2013-05-26 00:30:00
8:50 PM,59.0,28.4,31,30.21,10.0,NNW,10.4,-,N/A,,Clear,330,2013-05-26 00:50:00
9:10 PM,57.2,28.4,33,30.22,10.0,North,4.6,-,N/A,,Clear,350,2013-05-26 01:10:00
9:30 PM,55.4,28.4,36,30.22,10.0,North,5.8,-,N/A,,Clear,350,2013-05-26 01:30:00
9:50 PM,55.4,28.4,36,30.23,10.0,North,5.8,-,N/A,,Clear,350,2013-05-26 01:50:00
10:10 PM,55.4,28.4,36,30.24,10.0,NNW,6.9,-,N/A,,Clear,330,2013-05-26 02:10:00
10:30 PM,53.6,28.4,38,30.25,10.0,NNW,6.9,-,N/A,,Clear,330,2013-05-26 02:30:00
10:50 PM,53.6,30.2,41,30.24,10.0,NNW,8.1,-,N/A,,Clear,340,2013-05-26 02:50:00
11:10 PM,53.6,30.2,41,30.24,10.0,NNW,4.6,-,N/A,,Clear,330,2013-05-26 03:10:00
11:30 PM,53.6,30.2,41,30.25,10.0,NNW,5.8,-,N/A,,Clear,340,2013-05-26 03:30:00
11:50 PM,53.6,30.2,41,30.25,10.0,North,3.5,-,N/A,,Clear,360,2013-05-26 03:50:00